Powrót do katalogu

STARLINK-3930

AktywnyŁącznośćVLEO
NORAD 52568·PAYLOAD·🇺🇸 United States

Wystrzelony May 13, 2022 z Vandenberg Space Force Base

Loading…

Następne Przeloty (najbliższe 24 godziny)

TLE

ŚwieżeSource: CelesTrak SupGP

Epoka: Sep 14, 2026, 22:05 UTC

1 52568C 22051AM  26257.92062500 -.00043509  00000+0 -12857-2 0  2576
2 52568  53.1586 333.9706 0001243  80.2062 324.7895 15.34406548    14

Śledź STARLINK-3930 w czasie rzeczywistym z AllMySat

Download on the App Store